Regional Weather Roundup
Issued by NWS Upton, NY

Current Version | Previous Version | Graphics & Text | Print | Product List | Glossary Off
Versions: 1 2 3 4 5 6 7 8 9 10 11 12 13 14 15 16 17 18 19 20 21 22 23 24 25 26 27 28 29 30 31 32 33 34 35 36 37 38 39 40 41 42 43 44 45 46 47 48 49 50

000
ASUS41 KOKX 291305
RWROKX

REGIONAL WEATHER ROUNDUP
NATIONAL WEATHER SERVICE NEW YORK NY
900 AM EDT FRI AUG 29 2014

NOTE: "FAIR" INDICATES FEW OR NO CLOUDS BELOW 12,000 FEET WITH NO
SIGNIFICANT WEATHER AND/OR OBSTRUCTIONS TO VISIBILITY.

NYZ071-072-176-178-NJZ106-104-291400-
NEW YORK CITY METRO AREA


CITY           SKY/WX    TMP DP  RH WIND       PRES   REMARKS
CENTRAL PARK   MOSUNNY   65  50  58 CALM      30.21R
LAGUARDIA APRT PTSUNNY   67  52  58 N9        30.18R
KENNEDY INTL   PTSUNNY   69  51  52 N12       30.18R
NEWARK/LIBERTY PTSUNNY   68  51  54 N7        30.18R
BRNX BOT. GARD   N/A     66  52  59 NE3       30.19R
TETERBORO      MOSUNNY   68  50  52 N5        30.17R
$$

NYZ177-179-078>081-291400-
LONG ISLAND NEW YORK

CITY           SKY/WX    TMP DP  RH WIND       PRES   REMARKS
FARMINGDALE    MOSUNNY   68  53  58 NE10      30.17R
ISLIP          MOSUNNY   69  52  54 N10       30.15R
SHIRLEY        SUNNY     69  54  58 VRB5      30.17R
WESTHAMPTON    SUNNY     69  52  54 N12       30.18R
MONTAUK POINT    N/A     66  53  63 N7        30.17R
$$

NYZ052-065-067-291400-
HUDSON VALLEY

CITY           SKY/WX    TMP DP  RH WIND       PRES   REMARKS
WHITE PLAINS   MOSUNNY   66  51  58 N10       30.18R
NEWBURGH       SUNNY     59  54  82 W5        30.21R
MONTGOMERY     SUNNY     62  52  69 CALM      30.20R
POUGHKEEPSIE   SUNNY     62  54  74 CALM      30.19R
ALBANY         MOSUNNY   63  54  72 N6        30.20R
$$

NJZ001-105-106-008-010-013-015-019>022-104-291400-
NEW JERSEY

CITY           SKY/WX    TMP DP  RH WIND       PRES   REMARKS
NEWARK/LIBERTY PTSUNNY   68  51  54 N7        30.18R
TETERBORO      MOSUNNY   68  50  52 N5        30.17R
CALDWELL       MOSUNNY   64  52  64 CALM      30.19R
MORRISTOWN     MOSUNNY   64  55  72 CALM      30.19R
SOMERVILLE     MOSUNNY   65  53  65 N5        30.18R
LINDEN         FAIR      70  55  58 N5        30.20R
SUSSEX         LGT RAIN  62  55  77 CALM      30.20R
ANDOVER          N/A     60  54  80 CALM      30.21R
TRENTON        MOSUNNY   63  53  70 N7        30.19R
MILLVILLE      SUNNY     63  53  70 N7        30.18R
ATLANTIC CITY  MOSUNNY   63  54  72 N8        30.17R
WRIGHTSTOWN    MOSUNNY   63  54  72 N7        30.16R
TOMS RIVER     MOSUNNY   63  54  72 CALM      30.18S
BELMAR         MOSUNNY   66  52  59 N8        30.17S
$$

PAZ047>061-062-071-291400-
EASTERN PENNSYLVANIA

CITY           SKY/WX    TMP DP  RH WIND       PRES   REMARKS
PHILADELPHIA   PTSUNNY   67  51  56 N7        30.19R
ALLENTOWN      MOSUNNY   63  52  67 CALM      30.21R
SCRANTON       SUNNY     59  51  75 CALM      30.23R
$$

CTZ002-004>006-009-010-012-RIZ004-006-007-MAZ004-011-015-291400-
SOUTHERN NEW ENGLAND
 IN CT

CITY           SKY/WX    TMP DP  RH WIND       PRES   REMARKS
BRADLEY INTL   MOSUNNY   64  52  64 CALM      30.16R
HARTFORD       SUNNY     64  52  64 N3        30.17R
DANBURY        SUNNY     64  51  62 CALM      30.19R
WTRBRY/OXFORD  SUNNY     63  50  63 N6        30.19R
BRIDGEPORT     SUNNY     68  53  58 N9        30.17R
MERIDEN        SUNNY     67  50  54 N9        30.17R
NEW HAVEN      MOSUNNY   68  52  56 N10       30.16R
CHESTER        FAIR      64  52  63 N9        30.17R
GROTON         SUNNY     66  53  63 N12       30.15R
WILLIMANTIC    SUNNY     64  52  64 CALM      30.17R

 IN RI

CITY           SKY/WX    TMP DP  RH WIND       PRES   REMARKS
PROVIDENCE     MOSUNNY   68  52  56 N10       30.16R
BLOCK ISLAND   SUNNY     64  52  63 NE8       30.15R
WESTERLY       SUNNY     66  52  60 N10       30.15R

 IN MA

CITY           SKY/WX    TMP DP  RH WIND       PRES   REMARKS
BOSTON         MOSUNNY   68  51  54 N5        30.15R
WORCESTER      SUNNY     63  51  65 N7        30.17R
WESTFIELD      SUNNY     63  52  67 CALM      30.17R
PROVINCETOWN   SUNNY     66  55  68 N9        30.14R
NANTUCKET      SUNNY     69  55  60 N13       30.12R
$$

ANZ330-335-338-340-345-350-353-355-291400-
COASTAL MARINE OBSERVATIONS


STATION/POSITION TIME  SKY/WX   TEMP    WIND        PRES    VSBY  WAVE
                                AIR SEA DIR/SP/G                  HT/PER
                 (UTC)          (F)     (DEG/KT/KT) (MB)    (MI)  (FT/S)
NY HARB ENTRANCE NOT AVBL
4S FIRE IS       NOT AVBL
23SW MTP         1300                                 N/A           4/11
HUDSON CANYON    1300            69 71   30/ 12/ 14 1020.4          5/11
EXECUTION ROCKS  1300            67 74   30/  6/ 10   N/A
WESTERN LI SOUND 1300            65      10/  8/ 12   N/A           0
CENTRAL LI SOUND 1200            64 71  360/ 10/ 14   N/A           1/ 2
EASTERN LI SOUND 1200            68 68  360/ 12/ 16   N/A
ROBBINS REEF     1300            65     340/  8/  9   N/A
$$


>>>>>>>>>>>>>>>>>>>>>>>>>>>> KEY <<<<<<<<<<<<<<<<<<<<<<<<<<<
>                                                          <
>     SKY/WX - SKY CONDITION/PRESENT WEATHER               <
>     TMP    - TEMPERATURE IN FAHRENHEIT                   <
>     DP     - DEWPOINT IN FAHRENHEIT                      <
>     RH     - RELATIVE HUMIDITY IN PERCENT                <
>     WIND   - DIRECTION AND SPEED IN MPH                  <
>     PRES   - MEAN SEA LEVEL PRESSURE IN INCHES OF HG     <
>     WCI    - WIND CHILL INDEX                            <
>     VSB    - VISIBILITY IN MILES                         <
>     HX     - HEAT INDEX                                  <
>     TC     - TEMPERATURE IN CELSIUS                      <
>     VRB    - VARIABLE WIND DIRECTION                     <
>                                                          <
>>>>>>>>>>>>>>>>>>>>>>>>>>>> KEY <<<<<<<<<<<<<<<<<<<<<<<<<<<





USA.gov is the U.S. government's official web portal to all federal, state and local government web resources and services.